Hourly Data Report for November 18, 2016

All times are specified in Local Standard Time (LST). Add 1 hour to adjust for Daylight Saving Time where and when it is observed.

VICTORIA UNIVERSITY CS
BRITISH COLUMBIA

48°27'25.200" N
123°18'16.600" W
60.10 m
1018598
71783
WYJ

Download Data

Hourly Data (November 2016)
Hourly Data Report for November 18, 2016
TIME Temp Definition
°C
Dew Point Definition
°C
Rel Hum Definition
%
Wind Dir Definition
10's deg

Wind Spd Definition
km/h
Visibility Definition
km
Stn Press Definition
kPa
Hmdx Definition


Wind Chill Definition


Weather Definition


00:00 6.9 5.1 88 7 5   101.45     LegendNANA
01:00 5.9 4.4 91 3 2   101.41     LegendNANA
02:00 5.5 4.0 90 6 3   101.37     LegendNANA
03:00 5.8 3.8 87 4 3   101.31     LegendNANA
04:00 6.1 3.3 82 7 5   101.26     LegendNANA
05:00 6.0 3.0 81 7 5   101.18     LegendNANA
06:00 6.2 3.1 80 6 4   101.13     LegendNANA
07:00 6.6 2.6 75 6 6   101.07     LegendNANA
08:00 6.9 2.3 73 6 6   101.01     LegendNANA
09:00 7.6 2.4 69 6 5   100.95     LegendNANA
10:00 8.1 2.4 67 5 6   100.88     LegendNANA
11:00 8.8 2.6 65 5 5   100.84     LegendNANA
12:00 8.7 2.4 65 6 4   100.73     LegendNANA
13:00 8.8 3.1 67 3 4   100.59     LegendNANA
14:00 8.8 3.5 69 2 11   100.47     LegendNANA
15:00 9.0 3.1 67 2 12   100.42     LegendNANA
16:00 9.2 2.9 65 6 5   100.32     LegendNANA
17:00 9.5 2.7 63 7 10   100.20     LegendNANA
18:00 9.5 3.2 65 7 6   100.17     LegendNANA
19:00 9.4 3.2 65 8 10   100.10     LegendNANA
20:00 8.6 3.9 72 2 8   100.04     LegendNANA
21:00 8.5 3.2 70 3 5   99.96     LegendNANA
22:00 8.8 3.0 67 4 5   99.90     LegendNANA
23:00 9.9 1.8 57 6 8   99.79     LegendNANA

Notes on Data Quality.

Legend

  • E = Estimated
  • M = Missing
  • NA = Not Available
Date modified: